TimePDT,TemperatureF,Dew PointF,Humidity,Sea Level PressureIn,VisibilityMPH,Wind Direction,Wind SpeedMPH,Gust SpeedMPH,PrecipitationIn,Events,Conditions,WindDirDegrees,DateUTC
12:15 AM,55.4,42.8,63,30.36,10.0,NNW,3.5,-,N/A,,Clear,330,2013-06-27 07:15:00
12:35 AM,55.4,42.8,63,30.36,10.0,Calm,Calm,-,N/A,,Clear,0,2013-06-27 07:35:00
12:55 AM,53.6,42.8,67,30.36,10.0,Calm,Calm,-,N/A,,Clear,0,2013-06-27 07:55:00
1:15 AM,53.6,42.8,67,30.37,10.0,Calm,Calm,-,N/A,,Clear,0,2013-06-27 08:15:00
1:35 AM,53.6,41.0,62,30.37,10.0,WNW,4.6,-,N/A,,Clear,300,2013-06-27 08:35:00
1:55 AM,48.2,41.0,76,30.36,10.0,Calm,Calm,-,N/A,,Clear,0,2013-06-27 08:55:00
2:15 AM,48.2,39.2,71,30.37,10.0,North,3.5,-,N/A,,Clear,350,2013-06-27 09:15:00
2:35 AM,50.0,39.2,66,30.37,10.0,Calm,Calm,-,N/A,,Clear,0,2013-06-27 09:35:00
2:55 AM,51.8,41.0,67,30.37,10.0,Calm,Calm,-,N/A,,Clear,0,2013-06-27 09:55:00
3:15 AM,46.4,37.4,71,30.37,10.0,Calm,Calm,-,N/A,,Clear,0,2013-06-27 10:15:00
3:35 AM,46.4,37.4,71,30.37,10.0,NW,3.5,-,N/A,,Clear,320,2013-06-27 10:35:00
3:55 AM,42.8,35.6,76,30.38,10.0,Calm,Calm,-,N/A,,Clear,0,2013-06-27 10:55:00
4:15 AM,42.8,37.4,81,30.37,10.0,Calm,Calm,-,N/A,,Clear,0,2013-06-27 11:15:00
4:35 AM,42.8,35.6,76,30.38,10.0,Calm,Calm,-,N/A,,Clear,0,2013-06-27 11:35:00
4:55 AM,44.6,35.6,71,30.38,10.0,Calm,Calm,-,N/A,,Clear,0,2013-06-27 11:55:00
5:15 AM,44.6,35.6,71,30.38,10.0,NNW,3.5,-,N/A,,Clear,330,2013-06-27 12:15:00
5:35 AM,46.4,35.6,66,30.39,10.0,North,3.5,-,N/A,,Clear,350,2013-06-27 12:35:00
5:55 AM,44.6,35.6,71,30.40,10.0,Calm,Calm,-,N/A,,Clear,0,2013-06-27 12:55:00
6:15 AM,46.4,35.6,66,30.40,10.0,Calm,Calm,-,N/A,,Clear,0,2013-06-27 13:15:00
6:35 AM,50.0,37.4,62,30.40,10.0,Calm,Calm,-,N/A,,Clear,0,2013-06-27 13:35:00
6:55 AM,55.4,37.4,51,30.41,10.0,Calm,Calm,-,N/A,,Clear,0,2013-06-27 13:55:00
7:15 AM,57.2,37.4,48,30.41,10.0,Calm,Calm,-,N/A,,Clear,0,2013-06-27 14:15:00
7:35 AM,60.8,37.4,42,30.42,10.0,Calm,Calm,-,N/A,,Clear,0,2013-06-27 14:35:00
7:55 AM,62.6,39.2,42,30.42,10.0,Calm,Calm,-,N/A,,Clear,0,2013-06-27 14:55:00
8:15 AM,66.2,41.0,40,30.42,10.0,Calm,Calm,-,N/A,,Clear,0,2013-06-27 15:15:00
8:35 AM,68.0,42.8,40,30.42,10.0,SE,4.6,-,N/A,,Clear,130,2013-06-27 15:35:00
8:55 AM,71.6,42.8,35,30.42,10.0,SE,5.8,-,N/A,,Clear,130,2013-06-27 15:55:00
9:15 AM,73.4,41.0,31,30.42,10.0,SE,5.8,-,N/A,,Clear,140,2013-06-27 16:15:00
9:35 AM,77.0,39.2,26,30.43,10.0,ESE,5.8,-,N/A,,Clear,120,2013-06-27 16:35:00
9:55 AM,77.0,39.2,26,30.42,10.0,ENE,6.9,-,N/A,,Clear,70,2013-06-27 16:55:00
10:15 AM,80.6,39.2,23,30.42,10.0,ESE,5.8,-,N/A,,Clear,120,2013-06-27 17:15:00
10:35 AM,80.6,39.2,23,30.42,10.0,ESE,6.9,-,N/A,,Clear,110,2013-06-27 17:35:00
10:55 AM,82.4,37.4,20,30.42,10.0,East,10.4,-,N/A,,Clear,100,2013-06-27 17:55:00
11:15 AM,82.4,35.6,19,30.42,10.0,ESE,6.9,-,N/A,,Clear,120,2013-06-27 18:15:00
11:35 AM,84.2,35.6,18,30.42,10.0,SE,9.2,-,N/A,,Clear,130,2013-06-27 18:35:00
11:55 AM,86.0,33.8,15,30.42,10.0,East,11.5,-,N/A,,Clear,100,2013-06-27 18:55:00
12:15 PM,86.0,35.6,17,30.41,10.0,ESE,9.2,-,N/A,,Clear,120,2013-06-27 19:15:00
12:35 PM,86.0,35.6,17,30.40,10.0,ESE,11.5,-,N/A,,Clear,120,2013-06-27 19:35:00
12:55 PM,87.8,33.8,15,30.40,10.0,East,11.5,18.4,N/A,,Clear,100,2013-06-27 19:55:00
1:15 PM,87.8,35.6,16,30.40,10.0,ESE,11.5,17.3,N/A,,Clear,110,2013-06-27 20:15:00
1:35 PM,89.6,33.8,14,30.40,10.0,ESE,9.2,17.3,N/A,,Clear,120,2013-06-27 20:35:00
1:55 PM,89.6,33.8,14,30.39,10.0,ESE,10.4,16.1,N/A,,Clear,110,2013-06-27 20:55:00
2:15 PM,89.6,33.8,14,30.39,10.0,ESE,11.5,19.6,N/A,,Clear,120,2013-06-27 21:15:00
2:35 PM,89.6,33.8,14,30.39,10.0,ESE,11.5,-,N/A,,Clear,120,2013-06-27 21:35:00
2:55 PM,89.6,33.8,14,30.38,10.0,ESE,10.4,16.1,N/A,,Clear,110,2013-06-27 21:55:00
3:15 PM,91.4,33.8,13,30.38,10.0,SE,11.5,16.1,N/A,,Clear,140,2013-06-27 22:15:00
3:35 PM,89.6,33.8,14,30.37,10.0,ESE,11.5,-,N/A,,Scattered Clouds,120,2013-06-27 22:35:00
3:55 PM,89.6,33.8,14,30.38,10.0,West,12.7,19.6,N/A,,Mostly Cloudy,280,2013-06-27 22:55:00
4:15 PM,91.4,35.6,14,30.37,10.0,West,11.5,18.4,N/A,,Mostly Cloudy,280,2013-06-27 23:15:00
4:35 PM,87.8,35.6,16,30.37,10.0,WNW,5.8,21.9,N/A,,Scattered Clouds,290,2013-06-27 23:35:00
4:55 PM,89.6,35.6,15,30.37,10.0,WNW,12.7,21.9,N/A,,Scattered Clouds,290,2013-06-27 23:55:00
5:15 PM,89.6,35.6,15,30.36,10.0,WSW,12.7,19.6,N/A,,Clear,250,2013-06-28 00:15:00
5:35 PM,89.6,35.6,15,30.36,10.0,WNW,16.1,23.0,N/A,,Clear,300,2013-06-28 00:35:00
5:55 PM,89.6,35.6,15,30.36,10.0,West,10.4,21.9,N/A,,Clear,280,2013-06-28 00:55:00
6:15 PM,89.6,35.6,15,30.36,10.0,WSW,9.2,-,N/A,,Clear,240,2013-06-28 01:15:00
6:35 PM,87.8,35.6,16,30.35,10.0,SW,12.7,17.3,N/A,,Clear,220,2013-06-28 01:35:00
6:55 PM,86.0,35.6,17,30.36,10.0,NW,15.0,26.5,N/A,,Scattered Clouds,310,2013-06-28 01:55:00
7:15 PM,84.2,33.8,16,30.37,10.0,NW,12.7,24.2,N/A,,Clear,310,2013-06-28 02:15:00
7:35 PM,80.6,37.4,21,30.37,10.0,West,13.8,21.9,N/A,,Clear,280,2013-06-28 02:35:00
7:55 PM,78.8,37.4,23,30.38,10.0,NW,9.2,-,N/A,,Clear,310,2013-06-28 02:55:00
8:15 PM,77.0,37.4,24,30.38,10.0,Calm,Calm,-,N/A,,Clear,0,2013-06-28 03:15:00
8:35 PM,73.4,39.2,29,30.40,10.0,WNW,9.2,16.1,N/A,,Clear,300,2013-06-28 03:35:00
8:55 PM,73.4,37.4,27,30.40,10.0,Calm,Calm,-,N/A,,Scattered Clouds,0,2013-06-28 03:55:00
9:15 PM,73.4,39.2,29,30.42,10.0,West,4.6,-,N/A,,Mostly Cloudy,280,2013-06-28 04:15:00
9:35 PM,73.4,39.2,29,30.42,10.0,Calm,Calm,-,N/A,,Mostly Cloudy,0,2013-06-28 04:35:00
9:55 PM,69.8,37.4,31,30.43,10.0,West,3.5,-,N/A,,Scattered Clouds,270,2013-06-28 04:55:00
10:15 PM,71.6,37.4,29,30.44,10.0,WNW,8.1,-,N/A,,Clear,290,2013-06-28 05:15:00
10:35 PM,69.8,37.4,31,30.45,10.0,West,3.5,-,N/A,,Scattered Clouds,270,2013-06-28 05:35:00
10:55 PM,68.0,41.0,37,30.45,10.0,WNW,9.2,-,N/A,,Mostly Cloudy,290,2013-06-28 05:55:00
11:35 PM,66.2,39.2,37,30.45,10.0,West,9.2,-,N/A,,Scattered Clouds,280,2013-06-28 06:35:00
11:55 PM,66.2,37.4,35,30.45,10.0,West,10.4,-,N/A,,Scattered Clouds,270,2013-06-28 06:55:00